Showing default

HULIANWANG DIGUI-137, 67435

Orbit data source: Space-Track

HULIANWANG DIGUI-137, 67435 is a payload satellite owned by Zhongguo Xingwang (CN) in LEO that was launched on Tue, 13 Jan 2026 UTC via a CHANG ZHENG 8A launch vehicle from the Wenchang Satellite Launch Center (WSC). Payload-class satellites include a variety of spacecraft equipped with specific instruments for various scientific and technological missions. These include communications satellites like Starlink; space stations such as the ISS; scientific satellites like the Hubble; Earth observation satellites from companies like Planet Labs, Umbra, and HawkEye 360; GPS; miniature CubeSats for education and research; and military/defense satellites.

Loading next visibility...
Identifier
67435, 2026-007A
Orbit
LEO
Country
Flag of CNCN / PRC
Related business
Manufacturer
CAST
Mission
Operational spacecraft
Bus & Motor
XINGWANG C, Unknown motor
Mass
~700 kg wet, ~700 kg dry
Launch date (UTC)
2026-01-13 (2 months ago)
Launch vehicle
CHANG ZHENG 8A
Launch site
Wenchang Satellite Launch Center (WSC)
Object type
Payload
Rocket body
Debris
Shape & HBR
Unknown shape, 14.5 m
Radar Cross Section
RCS unknown

Expand to show TLE details & history
Last TLE update: 4 days ago

TLE from 4 days ago
0 HULIANWANG DIGUI-137
1 67435U 26007A   26069.08147403 -.00000060  00000-0  12954-3 0  9991
2 67435  50.0063  81.3663 0000401  47.7882 312.3027 13.35676515  7602
Epoch: 2026-03-10T01:57Z
TLE epoch observation values (Epoch: 2026-03-10T01:57:19.356Z)
Latitude
-0°
Longitude
-115.72953°
Altitude
1,125.734 km
Speed
7.291 km/s
True Right ascension
05h 25m 27s
True Declination
0° 00' 00"
Sunlit
Object was in daylight at epoch
Visualization orbit readout
Latitude
Unknown
Longitude
Unknown
Altitude
Unknown
Speed
Unknown
Apparent Right ascension
Unknown
Apparent Declination
Unknown
Sunlit
N/A
Visualization observer readout
Local Sidereal Time
10:12:57
Azimuth
Unknown
Elevation
Unknown
Doppler factor
Unknown
Orbital elements
Apogee altitude
1,126.436 km
Perigee altitude
1,125.834 km
Semi-major axis
7,504.272 km
Eccentricity
0.00004
Inclination
50.0063°
RAAN
81.3663°
Arg. of periapsis
47.7882°
True anomaly
312.2993°
Mean anomaly
312.3027°
Eccentric anomaly
312.301°
Mean motion
3.33872 °/min
Orbital period
107.83 mins
BSTAR
0.00012954
Loading maneuver chart data...
Computing Atmospheric mass density...
Loading historical data...
Loading historical data...
Loading historical data...
Loading historical data...
Loading historical data...
Loading historical data...
Loading historical data...

Documentation

Showing up to 5 results
|